AKDT,Max TemperatureF,Mean TemperatureF,Min TemperatureF,Max Dew PointF,MeanDew PointF,Min DewpointF,Max Humidity, Mean Humidity, Min Humidity, Max Sea Level PressureIn, Mean Sea Level PressureIn, Min Sea Level PressureIn, Max VisibilityMiles, Mean VisibilityMiles, Min VisibilityMiles, Max Wind SpeedMPH, Mean Wind SpeedMPH, Max Gust SpeedMPH,PrecipitationIn, CloudCover, Events, WindDirDegrees
2013-5-1,50,38,28,26,20,13,82,49,24,29.81,29.63,29.52,10,10,10,13,7,,0.00,4,,356
2013-5-2,45,40,35,36,30,25,86,72,55,29.87,29.79,29.64,10,10,5,20,3,31,0.01,8,Rain-Snow,94
2013-5-3,46,40,35,38,35,25,100,80,44,29.92,29.86,29.78,10,10,6,24,8,37,0.04,8,Rain,197
2013-5-4,36,34,32,36,32,30,100,93,86,29.94,29.82,29.72,10,4,1,6,1,,0.51,8,Rain-Snow,94
2013-5-5,46,40,33,32,29,21,96,72,37,30.12,30.07,29.97,10,10,10,14,4,,0.00,7,,111
2013-5-6,48,41,34,30,25,21,85,54,34,30.26,30.19,30.13,10,10,10,14,4,,0.00,7,,192
2013-5-7,48,40,33,31,28,22,85,60,42,30.29,30.27,30.23,10,10,10,7,1,,0.00,8,,53
2013-5-8,55,44,33,30,27,24,79,54,30,30.27,30.25,30.21,10,10,10,13,3,,0.00,2,,85
2013-5-9,55,42,30,32,28,25,79,55,38,30.31,30.26,30.22,10,10,10,6,2,,0.00,4,,176
2013-5-10,62,47,33,32,29,25,82,50,25,30.23,30.08,29.95,10,10,10,18,4,28,0.00,2,,128
2013-5-11,61,50,39,37,34,31,73,54,38,29.94,29.73,29.58,10,10,10,9,6,,0.00,7,,132
2013-5-12,52,47,43,46,43,37,100,86,71,29.58,29.50,29.46,10,8,4,5,0,,0.39,8,Rain,202
2013-5-13,51,44,39,43,41,33,100,92,56,29.47,29.43,29.39,10,4,0,15,2,,0.17,8,Fog-Rain,139
2013-5-14,39,34,30,36,30,18,96,82,47,29.64,29.56,29.46,10,9,4,9,3,,0.07,7,Rain-Snow,119
2013-5-15,50,41,34,34,28,22,93,65,37,29.76,29.72,29.65,10,10,10,21,7,30,0.00,7,,115
2013-5-16,48,41,36,31,29,25,73,59,50,29.75,29.59,29.44,10,10,10,25,12,34,0.00,8,,125
2013-5-17,44,38,32,37,33,30,100,92,60,29.51,29.43,29.37,10,4,0,20,7,26,0.64,8,Fog-Rain-Snow,174
2013-5-18,37,32,26,30,26,22,100,84,56,30.15,29.75,29.51,10,4,1,10,7,18,0.08,8,Snow,217
2013-5-19,46,36,26,24,19,12,78,48,29,30.61,30.44,30.19,10,10,10,8,2,,0.00,1,,138
2013-5-20,53,40,28,24,22,20,72,46,30,30.65,30.60,30.52,10,10,10,9,4,,0.00,2,,197
2013-5-21,57,42,30,31,25,19,79,48,28,30.57,30.42,30.27,10,10,10,9,4,,0.00,0,,241
2013-5-22,60,47,35,38,30,26,76,54,30,30.27,30.16,30.09,10,10,10,10,4,,0.00,5,,284
2013-5-23,59,49,41,41,39,37,96,70,49,30.17,30.13,30.09,10,10,10,6,1,,0.01,7,Rain,221
2013-5-24,68,56,43,38,37,35,80,54,32,30.09,30.02,29.96,10,10,10,14,5,,0.00,3,,128
2013-5-25,69,56,43,35,30,24,65,41,20,30.00,29.95,29.88,10,10,10,22,8,29,0.00,0,,114
2013-5-26,64,50,37,40,35,25,73,53,34,29.94,29.90,29.86,10,10,10,20,8,25,0.00,4,,137
2013-5-27,75,60,45,42,39,37,80,48,25,29.91,29.83,29.75,10,10,10,15,5,,0.00,0,,121
2013-5-28,78,60,42,43,39,36,80,50,25,29.78,29.70,29.63,10,10,10,12,3,,0.00,0,,137
2013-5-29,80,64,50,41,38,36,68,41,24,29.75,29.67,29.64,10,10,10,16,4,,0.00,0,,103
2013-5-30,73,59,46,45,41,38,76,52,32,30.01,29.89,29.77,10,10,10,8,3,,0.00,0,,272
2013-5-31,66,54,44,46,44,40,90,68,52,30.16,30.08,30.03,10,10,10,9,4,,0.00,0,,254